Regional Weather Roundup
Issued by NWS Newport/Morehead, NC

Current Version | Previous Version | Graphics & Text | Print | Product List | Glossary Off
Versions: 1 2 3 4 5 6 7 8 9 10 11 12 13 14 15 16 17 18 19 20 21 22 23 24 25 26 27 28 29 30 31 32 33 34 35 36 37 38 39 40 41 42 43 44 45 46 47 48 49 50
301 ASUS42 KMHX 201912 RWRMHX WEATHER ROUNDUP FOR EASTERN NORTH CAROLINA NATIONAL WEATHER SERVICE NEWPORT/MOREHEAD CITY NC 200 PM EST FRI JAN 20 2017 NOTE: "FAIR" INDICATES FEW OR NO CLOUDS BELOW 12,000 FEET WITH NO SIGNIFICANT WEATHER AND/OR OBSTRUCTIONS TO VISIBILITY NCZ015>017-031-032-045>047-102-103-202000- NORTH COAST CITY SKY/WX TMP DP RH WIND PRES REMARKS EDENTON LGT RAIN 53 50 90 CALM 29.87F ELIZABETH CITY LGT RAIN 50 47 89 NE8 29.87F FOG KITTY HAWK NOT AVBL MANTEO LGT RAIN 51 49 92 E5 29.87F $$ NCZ045>047-081-094-103-104-202000- CENTRAL COAST CITY SKY/WX TMP DP RH WIND PRES REMARKS FRISCO CLOUDY 63 54 72 S7 29.85F HAZE $$ NCZ095-097-098-100-101-202000- SOUTHERN COAST CITY SKY/WX TMP DP RH WIND PRES REMARKS BEAUFORT CLOUDY 72 64 76 S9 29.83F CEDAR ISLAND NOT AVBL JACKSONVILLE PTSUNNY 69 61 75 E6 29.83F PINEY ISLAND CLOUDY N/A N/A N/A SW6 29.83 WILMINGTON CLOUDY 73 60 63 SW10 29.83F $$ NCZ011>013-027>030-043-044-078>080-089-090>093-098-202000- COASTAL PLAIN CITY SKY/WX TMP DP RH WIND PRES REMARKS AHOSKIE N/A 48 47 97 E3 29.87F CLINTON MOSUNNY 71 60 68 SW7 29.84F ELIZABETHTOWN PTSUNNY 73 59 61 W9 29.83F GOLDSBORO PTSUNNY 68 61 77 SW8 29.82F GREENVILLE CLOUDY 59 54 82 N3 29.88S HAVELOCK CLOUDY 72 62 71 S8 29.83F KENANSVILLE CLOUDY 68 57 68 SW6 29.84F KINSTON CLOUDY 66 55 68 S3 29.85F NEW BERN PTSUNNY 67 56 67 CALM 29.84F RICHLANDS CLOUDY 70 60 70 SW7 29.84F ROCKY MOUNT CLOUDY 54 53 97 CALM 29.85F WASHINGTON PTSUNNY 60 49 67 SE3 N/A WHITEVILLE PTSUNNY 73 60 62 SW7 29.83F $$ AMZ130-135-150-152-154-156-158-170-250-252-270-ANZ085-086-088-633-658-670-202000- MARINE OBSERVATIONS STATION/POSITION TIME TEMP WIND PRES WAVE SWELL AIR SEA DIR/SP/G HT/PER HT/PER (UTC) (F) (DEG/KT/KT) (MB) (FT/S) (FT/S) CHESAPEAKE LIGHT NOT AVBL 64 E VA BEACH 1850 54 58 40/ 8/ 10 1012.2 5/11 5/11 DUCK 1848 47 45 20/ 11/ 12 1011.6 2 E DUCK 1900 45 N/A 4/14 3/14 OREGON INLET 1842 51 49 60/ 5/ 8 1011.1 13E OREGON INLT NOT AVBL HATTERAS CG 1848 62 55 160/ 5/ 9 1010.3 DIAMOND BUOY 1850 70 76 180/ 16/ 19 1010.6 5/12 5/12 CAPE LOOKOUT 1900 68 190/ 7/ 8 1009.7 BEAUFORT LAB 1848 66 51 170/ 8/ 10 1009.1 30 SE NEW RVR IN 1808 65 66 240/ 8/ 10 1010.8 30 SE NEW RVR IN 1843 66 N/A 4/13 3/13 27 SE WRIGHTSVLE 1808 70 71 240/ 12/ 16 1010.6 5 SE WRIGHTSVLE 1808 56 340/ 2/ 4 1010.8 225 S CAPE HAT 1850 71 71 160/ 14/ 16 1012.7 6/11 5/11 41 SE CHARLESTON 1850 71 71 230/ 17/ 19 1010.8 3/ 4 2/ 8 $$

USA.gov is the U.S. government's official web portal to all federal, state and local government web resources and services.